José Luis Lucero

Ojeador - Racing
6 Dic 2026
Domingo
Continuar

Personalidad

Adaptabilidad (1) Ambición (2) Controversia (18) Lealtad (12) Presión (6) Profesionalismo (6) Deportividad (14) Temperamento (2)

Perfil

Estilo de dirección Democrático
Licencia Continental C
Determinación 3
Gestión de personas 7
Motivación 5
Disciplina 2
Satisfacción laboral
50%
Fatiga
0%
Cargo Ojeador
Salario 23.8K p/s
Contrato 14.03.2027

Rendimiento

Comportamiento Normal
Efectividad del entrenamiento
10%
Desarrollo de jugadores
30%
Prevención de lesiones
30%
Implementación táctica
5%

Eventos recientes

Evaluó a un jugador 7d atrás
Evaluó a un jugador 7d atrás
Evaluó a un jugador 7d atrás
Evaluó a un jugador 14d atrás
Evaluó a un jugador 14d atrás
Evaluó a un jugador 14d atrás
Evaluó a un jugador 14d atrás
Evaluó a un jugador 14d atrás

Actualmente siguiendo

129
Jugador Club Estado Habilidad Confianza Observado Última observación Último voto
Santiago Laquidain Liverpool Montevideo Activo 101 / 111 40% 2 28.11.2026 -
Facundo Perdomo Liverpool Montevideo Activo 93 / 95 40% 2 28.11.2026 -
Wilken Ramírez Estudiantes de Merida Activo 100 / 96 40% 1 27.11.2026 -
Germán Triunfo Liverpool Montevideo Activo 100 / 91 40% 1 27.11.2026 -
Alexis Melo All Boys Activo 98 / 103 40% 2 26.11.2026 -
Ezequiel Busquets Montevideo City Torque Activo 90 / 100 40% 2 26.11.2026 -
Tobías Leiva Estudiantes Activo 128 / 110 40% 1 25.11.2026 -
Rodrigo Muníz Uruguay Montevideo Activo 86 / 100 40% 1 25.11.2026 -
Felipe Álvarez Racing Activo 87 / 108 40% 1 24.11.2026 -
Alexis Piegas Cerro Largo Activo 105 / 94 40% 1 24.11.2026 -
Milton Gerez Güemes Activo 96 / 112 40% 1 21.11.2026 -
Braian Galván Oriental Activo 121 / 116 40% 1 21.11.2026 -
Christopher Montaña Portuguesa Activo 105 / 102 40% 3 19.11.2026 -
Joaquín Trasante Danubio Activo 98 / 107 40% 2 19.11.2026 -
Gino Olguín Ferro Carril Oeste Activo 94 / 111 40% 1 19.11.2026 -
Matías Rapetti Defensores Unidos Activo 91 / 93 40% 1 19.11.2026 -
Brian Calderara Chacarita Juniors Activo 128 / 124 40% 1 17.11.2026 -
Ángel Estrada Leon Activo 127 / 122 40% 1 17.11.2026 -
Juan Quintana Montevideo City Torque Activo 106 / 112 40% 2 16.11.2026 -
Jorge Espejo Universidad de Concepcion Activo 124 / 117 40% 1 16.11.2026 -
Franco Malagueño Colegiales Activo 102 / 100 40% 2 14.11.2026 -
Yvo Calleros Madryn Activo 98 / 122 40% 1 14.11.2026 -
Maicol Ferreira Danubio Activo 106 / 112 40% 1 13.11.2026 -
Leomar Mosquera Trujillanos Activo 103 / 105 40% 1 13.11.2026 -
Brian Nievas Chaco For Ever Activo 103 / 97 40% 2 11.11.2026 -
Johan Madrid Sporting Cristal Activo 96 / 112 40% 1 11.11.2026 -
Leison Cuero Colon Activo 91 / 96 40% 2 08.11.2026 -
Alan Acevedo Fenix Activo 105 / 100 40% 1 08.11.2026 -
Marco Collao Audax Italiano Activo 99 / 116 40% 2 07.11.2026 -
Ignacio Núñez Union Espanola Activo 91 / 89 40% 1 07.11.2026 -
Enzo Silcan Almagro Activo 106 / 122 40% 3 06.11.2026 -
Enrique Almeida Cerro Largo Activo 105 / 102 40% 1 05.11.2026 -
Santiago Guzmán Wanderers Activo 90 / 99 40% 1 03.11.2026 -
Alexander Hernández Racing Activo 101 / 110 40% 1 02.11.2026 -
Thomas Ortega Quilmes Activo 113 / 114 40% 1 02.11.2026 -
Duván Mósquera Aguilas Doradas Activo 109 / 110 40% 1 31.10.2026 -
Luis Guevara Real Cartagena Activo 99 / 101 40% 1 31.10.2026 -
Francisco Ginella Albion Activo 97 / 106 40% 2 29.10.2026 -
Cristián Gutiérrez Union La Calera Activo 114 / 103 40% 1 29.10.2026 -
Brian Farioli Estudiantes Activo 113 / 122 40% 1 27.10.2026 -
Justen Glad Real Salt Lake Activo 140 / 121 40% 2 26.10.2026 -
Juan Quiñónez Alianza Atletico Activo 104 / 103 40% 1 26.10.2026 -
Tomás Moschion Albion Activo 93 / 111 40% 2 25.10.2026 -
Ramiro Makarte Alvarado Activo 97 / 115 40% 1 25.10.2026 -
Sebastián del Castillo Millonarios Activo 101 / 112 40% 2 24.10.2026 -
Axel Herrera Santiago Wanderers Activo 79 / 97 40% 1 24.10.2026 -
Agustín Benítez Defensores Activo 106 / 121 40% 1 22.10.2026 -
Osciel De La Cruz Chiapas Activo 116 / 95 40% 1 22.10.2026 -
Misael Jaime Chacarita Juniors Activo 90 / 105 40% 2 21.10.2026 -
Mariano Nichele Cerro Activo 83 / 99 40% 1 21.10.2026 -
Lorenzo González River Plate Activo 96 / 87 40% 1 20.10.2026 -
Andres Lioi Chaco For Ever Activo 123 / 104 40% 1 17.10.2026 -
José Cabrera Union Magdalena Activo 82 / 96 40% 1 17.10.2026 -
Gonzalo Gamarra Defensores Activo 101 / 99 40% 2 16.10.2026 -
Santiago Gauna Almirante Brown Activo 113 / 115 40% 1 16.10.2026 -
Lucas Ymbert Uruguay Montevideo Activo 80 / 103 40% 1 15.10.2026 -
Yacouba Meïté Plaza Colonia Activo 88 / 105 40% 1 14.10.2026 -
Ezequiel Olivera Liverpool Montevideo Activo 97 / 105 40% 1 14.10.2026 -
Mathías Rodríguez Cerrito Activo 104 / 104 40% 2 12.10.2026 -
Agustín Villalobos Godoy Cruz Activo 86 / 99 40% 1 12.10.2026 -
Guido Sosa Atenas Activo 90 / 109 40% 1 10.10.2026 -
Martín García Atlanta Activo 100 / 104 40% 1 09.10.2026 -
Emiliano Ancheta Nacional Activo 117 / 107 40% 3 07.10.2026 -
Cristóbal Guerra San Marcos de Arica Activo 88 / 95 40% 2 06.10.2026 -
Brayan Morales Trujillanos Activo 84 / 94 40% 1 06.10.2026 -
Julián Vila Arsenal Activo 116 / 93 40% 1 05.10.2026 -
Salvador Mariscal Santos Laguna Activo 113 / 102 40% 1 04.10.2026 -
Gonzalo Gómez Juventud Activo 121 / 114 40% 1 02.10.2026 -
Alexei Dominguez Pachuca Activo 110 / 102 40% 1 02.10.2026 -
Freddy Molina Union Magdalena Activo 87 / 90 40% 1 01.10.2026 -
Harold Antiñirre Huachipato Activo 96 / 99 40% 2 30.09.2026 -
David Contreras America de Cali Activo 97 / 99 40% 1 30.09.2026 -
Lisandro Montenegro Chacarita Juniors Activo 100 / 107 40% 1 27.09.2026 -
Cristhofer Mesías Universidad de Concepcion Activo 118 / 114 40% 1 27.09.2026 -
Tomás Ferreyra Defensores Unidos Activo 118 / 102 40% 1 25.09.2026 -
Misael Domínguez Morelia Activo 67 / 104 40% 1 25.09.2026 -
Luciano Fernández Central Espanol Activo 84 / 95 40% 2 24.09.2026 -
Agustín Sosa Madryn Activo 124 / 119 40% 2 23.09.2026 -
Juan Díaz Universidad Catolica Activo 122 / 124 40% 1 23.09.2026 -
Aron Agüero Maipú Activo 96 / 107 40% 1 22.09.2026 -
Kevin Lewis Liverpool Montevideo Activo 105 / 113 40% 1 22.09.2026 -
Augusto Gallo Fenix Activo 107 / 99 40% 1 21.09.2026 -
Dewar Victoria Millonarios Activo 115 / 107 40% 1 20.09.2026 -
Lucas Arzamendia Atenas Activo 106 / 87 40% 1 20.09.2026 -
Joaquín Fernández Deportivo Maldonado Activo 106 / 105 40% 1 19.09.2026 -
Mateo Ayres Cerrito Activo 95 / 106 40% 1 18.09.2026 -
Dagoberto Espinoza Club America Activo 80 / 118 40% 1 17.09.2026 -
Erico Cuello Defensor Sporting Activo 111 / 113 40% 1 17.09.2026 -
Nicolás Fernández Progreso Activo 94 / 119 40% 2 15.09.2026 -
Franco Bustamante Almagro Activo 112 / 112 40% 1 15.09.2026 -
Diego Núñez Colon Activo 88 / 96 40% 1 12.09.2026 -
Gabriel Aguayo Cerro Porteno Activo 100 / 92 40% 1 11.09.2026 -
Carlos Baltazar Puebla Activo 114 / 119 40% 1 11.09.2026 -
Gonzalo Silva Progreso Activo 104 / 106 40% 1 09.09.2026 -
Facundo Melillán Güemes Activo 119 / 113 40% 1 09.09.2026 -
Fernando Ramírez Chiapas Activo 86 / 101 40% 1 08.09.2026 -
Gabriel Díaz Patronato Activo 110 / 107 40% 1 08.09.2026 -
Ronaldo Lora Real Cartagena Activo 117 / 125 40% 1 07.09.2026 -
Camilo Mena Tigres Activo 110 / 110 40% 1 06.09.2026 -
Pablo Cardona Cortulua Activo 122 / 103 40% 3 01.09.2026 -
Juan Pablo Barinaga Patronato Activo 121 / 120 40% 1 30.08.2026 -
Ignacio Rodríguez Central Espanol Activo 116 / 114 40% 1 29.08.2026 -
Fabián Ángel Junior Activo 120 / 116 40% 1 29.08.2026 -
Emiliano Jourdan Cerro Largo Activo 97 / 105 40% 1 26.08.2026 -
Franco Martínez Artigas Activo 95 / 93 40% 1 26.08.2026 -
Guillermo Borthagaray Wanderers Activo 100 / 94 40% 1 25.08.2026 -
Gianfranco Trasante Progreso Activo 115 / 111 40% 1 24.08.2026 -
Cristian Tovar America de Cali Activo 105 / 100 40% 1 24.08.2026 -
Adrián Vila Rampla Juniors Activo 95 / 94 40% 1 23.08.2026 -
Anthony Stella Artigas Activo 82 / 81 40% 1 23.08.2026 -
Álvaro Meléndez Real Cartagena Activo 122 / 115 40% 1 20.08.2026 -
Franco Provenzano Deportivo Tachira Activo 95 / 82 40% 1 20.08.2026 -
Shean Barbosa Deportes Tolima Activo 102 / 101 40% 1 18.08.2026 -
Freddy Yovera Cienciano Activo 100 / 106 40% 1 18.08.2026 -
Darluis Paz Estudiantes de Caracas Activo 99 / 90 40% 1 15.08.2026 -
Santiago Ramírez Deportivo Maldonado Activo 111 / 112 40% 1 15.08.2026 -
Jose Herrera Llaneros Activo 92 / 96 40% 1 14.08.2026 -
Santiago Costa Albion Activo 108 / 98 40% 1 14.08.2026 -
Édgar Guerra Leon Activo 127 / 112 40% 1 14.08.2026 -
Johan Hinestroza Jaguares Activo 114 / 105 40% 1 14.08.2026 -
Franco González Penarol Activo 104 / 114 40% 2 13.08.2026 -
Esteban Rodríguez Uruguay Montevideo Activo 97 / 89 40% 1 13.08.2026 -
Tomás Galván River Plate Activo 140 / 128 40% 1 12.08.2026 -
Jesús Alcantar Melgar Activo 108 / 96 40% 1 10.08.2026 -
Dilan Rojas Iquique Activo 77 / 97 40% 1 09.08.2026 -
Federico Dafonte Boston River Activo 84 / 91 40% 1 08.08.2026 -
Agustín Aguirre Boston River Activo 109 / 93 40% 1 04.08.2026 -
Cristian Lima Uruguay Montevideo Activo 108 / 101 40% 1 02.08.2026 -
Mateo Puerta Deportivo Cali Activo 121 / 124 40% 1 02.08.2026 -